SAS119 ENBR-LOWW

Flight info

Callsign SAS119
Flight time 2h 28m
Altitude 35000
Route TINIG DCT NEDIK DCT HDO DCT EVIKU DCT BITSI DCT MIKOV MIKOV8W
Aircraft A21N/M-SDE2E3FGHIRWXY/LB1

Departure

Time 2026-05-06 17:28
Airport Bergen Airport, Flesland (ENBR)

Arrival

Time 2026-05-06 19:56
Airport Vienna International Airport (LOWW)
Time Latitude Longitude Altitude Speed Heading
2026-05-06 16:46 60.28810 5.22694 153 ft 0 kts 30°
2026-05-06 17:04 60.28810 5.22693 152 ft 0 kts 30°
2026-05-06 17:09 60.28810 5.22694 152 ft 0 kts 30°
2026-05-06 17:13 60.28802 5.22683 152 ft 3 kts 41°
2026-05-06 17:13 60.28788 5.22660 152 ft 3 kts 21°
2026-05-06 17:13 60.28771 5.22648 152 ft 0 kts 18°
2026-05-06 17:16 60.28772 5.22649 152 ft 0 kts 24°
2026-05-06 17:16 60.28774 5.22654 152 ft 0 kts 42°
2026-05-06 17:16 60.28775 5.22660 152 ft 1 kts 74°
2026-05-06 17:17 60.28770 5.22676 152 ft 3 kts 125°
2026-05-06 17:17 60.28750 5.22674 152 ft 5 kts 210°
2026-05-06 17:17 60.28733 5.22627 152 ft 1 kts 239°
2026-05-06 17:17 60.28730 5.22615 152 ft 0 kts 240°
2026-05-06 17:18 60.28729 5.22612 152 ft 1 kts 240°
2026-05-06 17:18 60.28723 5.22579 152 ft 4 kts 251°
2026-05-06 17:18 60.28712 5.22516 152 ft 6 kts 248°
2026-05-06 17:18 60.28700 5.22463 153 ft 7 kts 245°
2026-05-06 17:19 60.28706 5.22366 152 ft 8 kts 315°
2026-05-06 17:19 60.28760 5.22335 152 ft 9 kts 349°
2026-05-06 17:19 60.28828 5.22311 153 ft 11 kts 351°
2026-05-06 17:19 60.28906 5.22285 153 ft 12 kts 350°
2026-05-06 17:20 60.28991 5.22258 154 ft 13 kts 352°
2026-05-06 17:20 60.29087 5.22227 155 ft 14 kts 349°
2026-05-06 17:20 60.29190 5.22192 156 ft 16 kts 351°
2026-05-06 17:20 60.29299 5.22153 157 ft 16 kts 349°
2026-05-06 17:21 60.29413 5.22114 158 ft 17 kts 351°
2026-05-06 17:21 60.29535 5.22075 159 ft 18 kts 350°
2026-05-06 17:21 60.29663 5.22031 160 ft 19 kts 350°
2026-05-06 17:21 60.29796 5.21984 161 ft 20 kts 350°
2026-05-06 17:22 60.29934 5.21939 162 ft 20 kts 351°
2026-05-06 17:22 60.30077 5.21891 164 ft 21 kts 350°
2026-05-06 17:22 60.30221 5.21841 165 ft 21 kts 351°
2026-05-06 17:22 60.30360 5.21796 166 ft 17 kts 351°
2026-05-06 17:23 60.30459 5.21762 167 ft 12 kts 351°
2026-05-06 17:23 60.30538 5.21736 167 ft 11 kts 351°
2026-05-06 17:23 60.30603 5.21714 168 ft 5 kts 349°
2026-05-06 17:23 60.30606 5.21713 168 ft 0 kts 349°
2026-05-06 17:24 60.30615 5.21709 168 ft 2 kts 347°
2026-05-06 17:25 60.30637 5.21691 168 ft 4 kts 331°
2026-05-06 17:25 60.30660 5.21636 169 ft 6 kts 289°
2026-05-06 17:25 60.30662 5.21588 169 ft 0 kts 265°
2026-05-06 17:27 60.30662 5.21587 169 ft 1 kts 265°
2026-05-06 17:27 60.30659 5.21540 169 ft 7 kts 263°
2026-05-06 17:27 60.30635 5.21417 171 ft 12 kts 221°
2026-05-06 17:27 60.30542 5.21414 168 ft 23 kts 171°
2026-05-06 17:28 60.30154 5.21541 163 ft 91 kts 171°
2026-05-06 17:28 60.29294 5.21830 174 ft 154 kts 170°
2026-05-06 17:28 60.28271 5.22209 822 ft 154 kts 171°
2026-05-06 17:28 60.27162 5.22644 1372 ft 169 kts 173°
2026-05-06 17:29 60.25970 5.23075 1992 ft 179 kts 174°
2026-05-06 17:29 60.24705 5.23503 2441 ft 190 kts 174°
2026-05-06 17:29 60.23365 5.23935 2851 ft 202 kts 174°
2026-05-06 17:29 60.21923 5.24374 3164 ft 220 kts 174°
2026-05-06 17:30 60.20336 5.24866 3464 ft 241 kts 173°
2026-05-06 17:30 60.18622 5.25427 3903 ft 257 kts 172°
2026-05-06 17:30 60.16892 5.26369 4577 ft 261 kts 154°
2026-05-06 17:30 60.15474 5.28625 5588 ft 256 kts 128°
2026-05-06 17:31 60.14686 5.31785 6442 ft 257 kts 108°
2026-05-06 17:31 60.14196 5.35301 6876 ft 273 kts 104°
2026-05-06 17:31 60.13738 5.39045 7537 ft 278 kts 103°
2026-05-06 17:31 60.13265 5.42827 8321 ft 280 kts 104°
2026-05-06 17:32 60.12771 5.46622 9084 ft 283 kts 104°
2026-05-06 17:32 60.12249 5.50464 9841 ft 287 kts 105°
2026-05-06 17:32 60.11721 5.54360 10525 ft 292 kts 104°
2026-05-06 17:32 60.11203 5.58325 11187 ft 299 kts 104°
2026-05-06 17:33 60.10685 5.62436 11769 ft 309 kts 103°
2026-05-06 17:33 60.10166 5.66691 12378 ft 319 kts 103°
2026-05-06 17:33 60.09631 5.71069 13023 ft 327 kts 103°
2026-05-06 17:33 60.08947 5.75462 13680 ft 334 kts 117°
2026-05-06 17:34 60.07585 5.79186 14269 ft 336 kts 142°
2026-05-06 17:34 60.05726 5.82012 14925 ft 337 kts 149°
2026-05-06 17:34 60.03847 5.84636 15464 ft 342 kts 152°
2026-05-06 17:34 60.01814 5.87333 16058 ft 347 kts 154°
2026-05-06 17:35 59.99778 5.89944 16648 ft 351 kts 154°
2026-05-06 17:35 59.97715 5.92602 17212 ft 357 kts 154°
2026-05-06 17:35 59.95630 5.95324 17642 ft 369 kts 153°
2026-05-06 17:36 59.91215 6.01196 18146 ft 396 kts 153°
2026-05-06 17:36 59.88904 6.04284 18395 ft 409 kts 152°
2026-05-06 17:36 59.86508 6.07480 18612 ft 422 kts 152°
2026-05-06 17:36 59.84035 6.10766 18833 ft 434 kts 152°
2026-05-06 17:37 59.81503 6.14129 19162 ft 442 kts 152°
2026-05-06 17:37 59.78975 6.17464 19547 ft 446 kts 153°
2026-05-06 17:37 59.76353 6.20929 20039 ft 450 kts 153°
2026-05-06 17:37 59.73748 6.24367 20481 ft 454 kts 153°
2026-05-06 17:38 59.71115 6.27835 20980 ft 457 kts 153°
2026-05-06 17:38 59.68461 6.31323 21399 ft 460 kts 153°
2026-05-06 17:38 59.65779 6.34848 21803 ft 464 kts 153°
2026-05-06 17:38 59.63081 6.38384 22253 ft 467 kts 153°
2026-05-06 17:39 59.60357 6.41937 22692 ft 471 kts 153°
2026-05-06 17:39 59.57611 6.45508 23086 ft 474 kts 153°
2026-05-06 17:39 59.54845 6.49095 23467 ft 478 kts 153°
2026-05-06 17:39 59.52063 6.52694 23907 ft 477 kts 153°
2026-05-06 17:40 59.49294 6.56273 24375 ft 476 kts 153°
2026-05-06 17:40 59.46574 6.59778 24723 ft 478 kts 154°
2026-05-06 17:40 59.43739 6.63426 25072 ft 479 kts 154°
2026-05-06 17:40 59.41002 6.66948 25615 ft 474 kts 153°
2026-05-06 17:41 59.38276 6.70467 26249 ft 469 kts 154°
2026-05-06 17:41 59.35572 6.73944 26730 ft 467 kts 154°
2026-05-06 17:41 59.32866 6.77406 27161 ft 465 kts 154°
2026-05-06 17:41 59.30186 6.80819 27593 ft 463 kts 154°
2026-05-06 17:42 59.27507 6.84223 28025 ft 461 kts 155°
2026-05-06 17:42 59.24826 6.87625 28475 ft 459 kts 155°
2026-05-06 17:42 59.22159 6.91004 28885 ft 458 kts 155°
2026-05-06 17:42 59.19515 6.94348 29285 ft 456 kts 155°
2026-05-06 17:43 59.16868 6.97690 29686 ft 454 kts 155°
2026-05-06 17:43 59.14226 7.01022 30069 ft 453 kts 156°
2026-05-06 17:43 59.11592 7.04334 30272 ft 453 kts 155°
2026-05-06 17:43 59.08937 7.07664 30463 ft 454 kts 155°
2026-05-06 17:44 59.06292 7.10976 30707 ft 454 kts 155°
2026-05-06 17:44 59.03643 7.14290 30935 ft 454 kts 155°
2026-05-06 17:44 59.01001 7.17589 31154 ft 454 kts 155°
2026-05-06 17:44 58.98340 7.20905 31393 ft 454 kts 155°
2026-05-06 17:45 58.95685 7.24210 31623 ft 454 kts 155°
2026-05-06 17:45 58.93031 7.27507 31848 ft 454 kts 155°
2026-05-06 17:45 58.90373 7.30803 32062 ft 454 kts 155°
2026-05-06 17:45 58.87714 7.34089 32287 ft 454 kts 155°
2026-05-06 17:46 58.85065 7.37361 32502 ft 454 kts 155°
2026-05-06 17:46 58.82417 7.40627 32715 ft 454 kts 155°
2026-05-06 17:46 58.79763 7.43893 32872 ft 453 kts 154°
2026-05-06 17:46 58.77110 7.47153 33115 ft 452 kts 154°
2026-05-06 17:47 58.74460 7.50404 33321 ft 451 kts 155°
2026-05-06 17:47 58.71809 7.53649 33479 ft 451 kts 155°
2026-05-06 17:47 58.69157 7.56888 33609 ft 451 kts 155°
2026-05-06 17:47 58.66536 7.60081 33869 ft 448 kts 155°
2026-05-06 17:48 58.63888 7.63312 34073 ft 448 kts 155°
2026-05-06 17:48 58.61257 7.66514 34216 ft 448 kts 155°
2026-05-06 17:48 58.58616 7.69716 34326 ft 449 kts 155°
2026-05-06 17:48 58.56067 7.72798 34400 ft 450 kts 155°
2026-05-06 17:49 58.53345 7.76084 34501 ft 450 kts 155°
2026-05-06 17:49 58.50699 7.79273 34597 ft 450 kts 155°
2026-05-06 17:49 58.48114 7.82385 34703 ft 451 kts 155°
2026-05-06 17:49 58.45444 7.85592 34806 ft 451 kts 155°
2026-05-06 17:50 58.40106 7.91990 34965 ft 453 kts 154°
2026-05-06 17:50 58.34783 7.98347 34965 ft 452 kts 154°
2026-05-06 17:51 58.29449 8.04698 34966 ft 452 kts 155°
2026-05-06 17:51 58.24128 8.11010 34965 ft 451 kts 155°
2026-05-06 17:52 58.18826 8.17275 34974 ft 450 kts 155°
2026-05-06 17:52 58.13550 8.23485 34973 ft 449 kts 155°
2026-05-06 17:53 58.08217 8.29740 34958 ft 449 kts 155°
2026-05-06 17:53 58.02902 8.35952 34958 ft 449 kts 155°
2026-05-06 17:54 57.97586 8.42144 34960 ft 449 kts 155°
2026-05-06 17:54 57.92265 8.48321 34959 ft 449 kts 155°
2026-05-06 17:55 57.86995 8.54417 34962 ft 448 kts 155°
2026-05-06 17:55 57.81694 8.60531 34971 ft 446 kts 155°
2026-05-06 17:56 57.76411 8.66598 34971 ft 446 kts 155°
2026-05-06 17:56 57.71131 8.72640 34974 ft 446 kts 155°
2026-05-06 17:57 57.65834 8.78680 34971 ft 446 kts 155°
2026-05-06 17:57 57.60533 8.84705 34956 ft 446 kts 155°
2026-05-06 17:58 57.55240 8.90703 34974 ft 445 kts 155°
2026-05-06 17:58 57.49950 8.96676 34974 ft 445 kts 155°
2026-05-06 17:59 57.44660 9.02626 34954 ft 445 kts 155°
2026-05-06 17:59 57.39371 9.08557 34975 ft 444 kts 155°
2026-05-06 18:00 57.34085 9.14463 34976 ft 444 kts 155°
2026-05-06 18:00 57.28796 9.20351 34975 ft 444 kts 155°
2026-05-06 18:01 57.23509 9.26219 34973 ft 444 kts 155°
2026-05-06 18:01 57.18232 9.32056 34972 ft 444 kts 155°
2026-05-06 18:02 57.12953 9.37876 34966 ft 444 kts 155°
2026-05-06 18:02 57.07654 9.43698 34966 ft 444 kts 155°
2026-05-06 18:03 57.02357 9.49497 34962 ft 443 kts 155°
2026-05-06 18:03 56.97063 9.55275 34964 ft 442 kts 155°
2026-05-06 18:04 56.91773 9.61029 34961 ft 442 kts 155°
2026-05-06 18:04 56.86485 9.66761 34955 ft 442 kts 155°
2026-05-06 18:05 56.82088 9.71513 34955 ft 442 kts 155°
2026-05-06 18:05 56.76788 9.77223 34954 ft 442 kts 155°
2026-05-06 18:06 56.71491 9.82911 34931 ft 442 kts 155°
2026-05-06 18:06 56.66188 9.88587 34943 ft 442 kts 155°
2026-05-06 18:07 56.60885 9.94245 34944 ft 441 kts 155°
2026-05-06 18:07 56.55603 9.99865 34943 ft 440 kts 155°
2026-05-06 18:08 56.50324 10.05459 34936 ft 440 kts 155°
2026-05-06 18:08 56.45030 10.11050 34945 ft 440 kts 155°
2026-05-06 18:09 56.39758 10.16601 34942 ft 439 kts 154°
2026-05-06 18:09 56.34481 10.22139 34942 ft 439 kts 154°
2026-05-06 18:10 56.29208 10.27656 34941 ft 439 kts 155°
2026-05-06 18:10 56.24038 10.33047 34941 ft 439 kts 155°
2026-05-06 18:11 56.18760 10.38534 34942 ft 438 kts 154°
2026-05-06 18:11 56.13493 10.43993 34941 ft 437 kts 154°
2026-05-06 18:12 56.08329 10.49326 34941 ft 438 kts 154°
2026-05-06 18:12 56.02956 10.54857 34944 ft 438 kts 154°
2026-05-06 18:13 55.97716 10.60236 34946 ft 438 kts 154°
2026-05-06 18:13 55.92431 10.65644 34941 ft 438 kts 154°
2026-05-06 18:14 55.87146 10.71034 34947 ft 438 kts 154°
2026-05-06 18:14 55.81858 10.76409 34938 ft 438 kts 154°
2026-05-06 18:15 55.76560 10.81778 34947 ft 438 kts 154°
2026-05-06 18:15 55.71262 10.87129 34946 ft 438 kts 154°
2026-05-06 18:16 55.65960 10.92468 34949 ft 438 kts 154°
2026-05-06 18:16 55.60657 10.97793 34947 ft 438 kts 154°
2026-05-06 18:17 55.55352 11.03102 34947 ft 438 kts 154°
2026-05-06 18:17 55.50043 11.08398 34946 ft 438 kts 154°
2026-05-06 18:18 55.44734 11.13677 34947 ft 438 kts 154°
2026-05-06 18:18 55.39420 11.18947 34951 ft 438 kts 155°
2026-05-06 18:19 55.34105 11.24201 34950 ft 438 kts 155°
2026-05-06 18:19 55.28787 11.29441 34949 ft 438 kts 155°
2026-05-06 18:20 55.23468 11.34665 34951 ft 438 kts 155°
2026-05-06 18:20 55.18142 11.39880 34952 ft 439 kts 155°
2026-05-06 18:21 55.12814 11.45082 34952 ft 438 kts 155°
2026-05-06 18:21 55.07486 11.50267 34952 ft 438 kts 155°
2026-05-06 18:22 55.02154 11.55440 34938 ft 438 kts 154°
2026-05-06 18:22 54.96837 11.60583 34935 ft 436 kts 154°
2026-05-06 18:23 54.91599 11.65632 34949 ft 437 kts 154°
2026-05-06 18:23 54.86217 11.70806 34946 ft 437 kts 154°
2026-05-06 18:24 54.80900 11.75902 34943 ft 437 kts 154°
2026-05-06 18:24 54.75583 11.80983 34934 ft 437 kts 154°
2026-05-06 18:25 54.70303 11.86013 34937 ft 437 kts 154°
2026-05-06 18:25 54.64987 11.91061 34929 ft 438 kts 154°
2026-05-06 18:26 54.59601 11.96161 34932 ft 439 kts 155°
2026-05-06 18:26 54.54287 12.01179 34925 ft 438 kts 155°
2026-05-06 18:27 54.48878 12.06150 34926 ft 436 kts 159°
2026-05-06 18:27 54.43317 12.10293 34922 ft 435 kts 161°
2026-05-06 18:28 54.37754 12.14221 34917 ft 435 kts 161°
2026-05-06 18:28 54.32109 12.18157 34913 ft 435 kts 161°
2026-05-06 18:29 54.26501 12.22068 34914 ft 435 kts 161°
2026-05-06 18:29 54.20897 12.25977 34906 ft 435 kts 161°
2026-05-06 18:30 54.15299 12.29876 34899 ft 433 kts 161°
2026-05-06 18:30 54.09719 12.33751 34891 ft 433 kts 161°
2026-05-06 18:31 54.04147 12.37607 34891 ft 433 kts 161°
2026-05-06 18:31 53.98568 12.41457 34908 ft 433 kts 161°
2026-05-06 18:32 53.93024 12.45272 34910 ft 433 kts 162°
2026-05-06 18:32 53.87479 12.49077 34912 ft 433 kts 162°
2026-05-06 18:33 53.81914 12.52885 34904 ft 433 kts 162°
2026-05-06 18:33 53.76314 12.56705 34898 ft 433 kts 162°
2026-05-06 18:34 53.70733 12.60503 34879 ft 433 kts 162°
2026-05-06 18:34 53.65235 12.64233 34881 ft 432 kts 162°
2026-05-06 18:35 53.59641 12.68017 34879 ft 432 kts 162°
2026-05-06 18:35 53.54070 12.71774 34871 ft 432 kts 162°
2026-05-06 18:36 53.48486 12.75528 34873 ft 433 kts 162°
2026-05-06 18:36 53.42908 12.79270 34866 ft 433 kts 162°
2026-05-06 18:37 53.38230 12.82399 34867 ft 433 kts 162°
2026-05-06 18:37 53.31728 12.86736 34863 ft 433 kts 162°
2026-05-06 18:38 53.26129 12.90459 34842 ft 434 kts 162°
2026-05-06 18:38 53.20508 12.94186 34849 ft 435 kts 162°
2026-05-06 18:39 53.14883 12.97906 34859 ft 435 kts 162°
2026-05-06 18:40 53.06447 13.03465 34855 ft 435 kts 162°
2026-05-06 18:40 53.00934 13.07086 34838 ft 435 kts 162°
2026-05-06 18:41 52.95221 13.10826 34839 ft 435 kts 162°
2026-05-06 18:41 52.89624 13.14480 34836 ft 435 kts 162°
2026-05-06 18:42 52.83998 13.18144 34836 ft 435 kts 162°
2026-05-06 18:42 52.78369 13.21799 34839 ft 434 kts 163°
2026-05-06 18:43 52.72789 13.25414 34843 ft 431 kts 163°
2026-05-06 18:43 52.67202 13.29021 34836 ft 431 kts 163°
2026-05-06 18:44 52.61631 13.32607 34835 ft 431 kts 163°
2026-05-06 18:44 52.56070 13.36178 34832 ft 431 kts 163°
2026-05-06 18:45 52.50490 13.39751 34831 ft 431 kts 163°
2026-05-06 18:45 52.44945 13.43294 34828 ft 430 kts 163°
2026-05-06 18:46 52.39372 13.46844 34827 ft 429 kts 163°
2026-05-06 18:46 52.33806 13.50379 34819 ft 428 kts 164°
2026-05-06 18:47 52.28276 13.53884 34827 ft 425 kts 164°
2026-05-06 18:47 52.22761 13.57369 34828 ft 425 kts 164°
2026-05-06 18:48 52.17334 13.60789 34827 ft 423 kts 164°
2026-05-06 18:48 52.11778 13.64280 34823 ft 423 kts 164°
2026-05-06 18:49 52.06297 13.67715 34815 ft 423 kts 164°
2026-05-06 18:49 52.00824 13.71136 34815 ft 423 kts 164°
2026-05-06 18:50 51.95341 13.74554 34801 ft 423 kts 164°
2026-05-06 18:50 51.90778 13.77393 34810 ft 423 kts 164°
2026-05-06 18:51 51.84357 13.81377 34804 ft 424 kts 165°
2026-05-06 18:51 51.79841 13.84171 34804 ft 424 kts 165°
2026-05-06 18:52 51.74402 13.87529 34801 ft 424 kts 165°
2026-05-06 18:52 51.68816 13.90968 34796 ft 424 kts 165°
2026-05-06 18:53 51.63323 13.94342 34799 ft 423 kts 165°
2026-05-06 18:53 51.57831 13.97705 34798 ft 423 kts 165°
2026-05-06 18:54 51.52342 14.01058 34795 ft 423 kts 165°
2026-05-06 18:54 51.46853 14.04403 34794 ft 423 kts 165°
2026-05-06 18:55 51.41347 14.07749 34786 ft 423 kts 165°
2026-05-06 18:55 51.35836 14.11089 34791 ft 424 kts 165°
2026-05-06 18:56 51.30326 14.14421 34789 ft 423 kts 165°
2026-05-06 18:56 51.24925 14.17678 34788 ft 423 kts 165°
2026-05-06 18:57 51.19538 14.20919 34787 ft 423 kts 165°
2026-05-06 18:57 51.13954 14.24269 34787 ft 424 kts 165°
2026-05-06 18:58 51.08441 14.27569 34780 ft 424 kts 165°
2026-05-06 18:58 51.02915 14.30868 34760 ft 424 kts 165°
2026-05-06 18:59 50.97390 14.34158 34780 ft 425 kts 165°
2026-05-06 18:59 50.91817 14.37149 34762 ft 421 kts 170°
2026-05-06 19:00 50.86133 14.39412 34775 ft 421 kts 172°
2026-05-06 19:00 50.80441 14.41520 34776 ft 421 kts 172°
2026-05-06 19:01 50.74791 14.43588 34775 ft 421 kts 172°
2026-05-06 19:01 50.69100 14.45680 34768 ft 421 kts 172°
2026-05-06 19:02 50.63390 14.47785 34767 ft 421 kts 172°
2026-05-06 19:02 50.57700 14.49879 34766 ft 420 kts 172°
2026-05-06 19:03 50.52022 14.51963 34769 ft 420 kts 172°
2026-05-06 19:03 50.46450 14.54815 34764 ft 429 kts 156°
2026-05-06 19:04 50.41693 14.60589 34764 ft 440 kts 143°
2026-05-06 19:04 50.37266 14.67238 34760 ft 443 kts 141°
2026-05-06 19:05 50.32926 14.73976 34758 ft 443 kts 141°
2026-05-06 19:05 50.28547 14.80681 34754 ft 442 kts 142°
2026-05-06 19:06 50.24137 14.87336 34740 ft 442 kts 142°
2026-05-06 19:06 50.19699 14.93989 34755 ft 443 kts 142°
2026-05-06 19:07 50.15247 15.00643 34761 ft 443 kts 142°
2026-05-06 19:07 50.10796 15.07282 34752 ft 443 kts 142°
2026-05-06 19:07 50.08575 15.10591 34514 ft 441 kts 142°
2026-05-06 19:08 50.06362 15.13883 33806 ft 443 kts 142°
2026-05-06 19:08 50.04122 15.17204 32986 ft 446 kts 142°
2026-05-06 19:08 50.01888 15.20515 32318 ft 445 kts 142°
2026-05-06 19:08 49.99656 15.23824 31640 ft 444 kts 143°
2026-05-06 19:09 49.97432 15.27115 30969 ft 443 kts 143°
2026-05-06 19:09 49.95205 15.30403 30275 ft 443 kts 142°
2026-05-06 19:09 49.92982 15.33682 29866 ft 443 kts 142°
2026-05-06 19:10 49.88529 15.40239 29760 ft 435 kts 142°
2026-05-06 19:10 49.86397 15.43386 29523 ft 423 kts 142°
2026-05-06 19:10 49.84271 15.46521 29267 ft 412 kts 143°
2026-05-06 19:10 49.82225 15.49532 29031 ft 400 kts 143°
2026-05-06 19:11 49.80238 15.52449 28802 ft 388 kts 143°
2026-05-06 19:11 49.78302 15.55282 28301 ft 383 kts 144°
2026-05-06 19:11 49.76346 15.58122 27571 ft 386 kts 144°
2026-05-06 19:11 49.74370 15.60982 26669 ft 393 kts 143°
2026-05-06 19:12 49.72355 15.63892 25712 ft 401 kts 143°
2026-05-06 19:12 49.70378 15.66749 24798 ft 410 kts 143°
2026-05-06 19:12 49.68300 15.69971 23808 ft 424 kts 134°
2026-05-06 19:12 49.66784 15.73968 22714 ft 444 kts 116°
2026-05-06 19:13 49.65922 15.78639 21534 ft 459 kts 107°
2026-05-06 19:13 49.65301 15.83482 20577 ft 462 kts 105°
2026-05-06 19:13 49.64711 15.88301 19824 ft 459 kts 105°
2026-05-06 19:13 49.64121 15.93108 19125 ft 454 kts 105°
2026-05-06 19:14 49.63528 15.97864 18429 ft 449 kts 105°
2026-05-06 19:14 49.62933 16.02547 17745 ft 444 kts 105°
2026-05-06 19:14 49.62335 16.07190 16988 ft 439 kts 105°
2026-05-06 19:14 49.61732 16.11778 16260 ft 434 kts 105°
2026-05-06 19:15 49.61125 16.16310 15568 ft 429 kts 105°
2026-05-06 19:15 49.60518 16.20767 14884 ft 423 kts 105°
2026-05-06 19:15 49.59903 16.25179 14188 ft 419 kts 105°
2026-05-06 19:15 49.59071 16.29410 13711 ft 405 kts 115°
2026-05-06 19:16 49.57781 16.33137 13445 ft 386 kts 128°
2026-05-06 19:16 49.56036 16.36123 13188 ft 366 kts 143°
2026-05-06 19:16 49.53957 16.38175 12928 ft 347 kts 158°
2026-05-06 19:16 49.51735 16.39366 12759 ft 330 kts 169°
2026-05-06 19:17 49.49511 16.40094 12743 ft 325 kts 171°
2026-05-06 19:17 49.47289 16.40749 12748 ft 327 kts 172°
2026-05-06 19:17 49.45062 16.41413 12748 ft 326 kts 171°
2026-05-06 19:17 49.42839 16.42090 12750 ft 325 kts 171°
2026-05-06 19:18 49.40622 16.42776 12747 ft 325 kts 171°
2026-05-06 19:18 49.38408 16.43465 12747 ft 325 kts 171°
2026-05-06 19:18 49.36197 16.44157 12749 ft 325 kts 171°
2026-05-06 19:18 49.33982 16.44851 12747 ft 325 kts 171°
2026-05-06 19:19 49.31764 16.45546 12746 ft 325 kts 171°
2026-05-06 19:19 49.29545 16.46242 12746 ft 325 kts 171°
2026-05-06 19:19 49.27327 16.46937 12746 ft 325 kts 171°
2026-05-06 19:19 49.25113 16.47631 12741 ft 325 kts 171°
2026-05-06 19:20 49.22897 16.48324 12743 ft 325 kts 171°
2026-05-06 19:20 49.20682 16.49017 12746 ft 324 kts 171°
2026-05-06 19:20 49.18473 16.49708 12747 ft 324 kts 171°
2026-05-06 19:20 49.16267 16.50396 12746 ft 324 kts 171°
2026-05-06 19:21 49.14057 16.51085 12747 ft 324 kts 171°
2026-05-06 19:21 49.11845 16.51774 12746 ft 324 kts 171°
2026-05-06 19:21 49.09634 16.52462 12746 ft 324 kts 171°
2026-05-06 19:21 49.07426 16.53149 12732 ft 324 kts 171°
2026-05-06 19:22 49.05215 16.53836 12746 ft 325 kts 171°
2026-05-06 19:22 49.02999 16.54525 12746 ft 325 kts 171°
2026-05-06 19:22 49.00786 16.55211 12745 ft 325 kts 171°
2026-05-06 19:22 48.98571 16.55897 12659 ft 324 kts 171°
2026-05-06 19:23 48.96367 16.56581 12409 ft 323 kts 171°
2026-05-06 19:23 48.94170 16.57251 12145 ft 321 kts 172°
2026-05-06 19:23 48.91980 16.57888 11889 ft 320 kts 172°
2026-05-06 19:23 48.89789 16.58531 11761 ft 320 kts 172°
2026-05-06 19:24 48.87602 16.59186 11748 ft 321 kts 172°
2026-05-06 19:24 48.85415 16.59848 11742 ft 320 kts 172°
2026-05-06 19:24 48.83234 16.60513 11741 ft 320 kts 172°
2026-05-06 19:24 48.81051 16.61181 11741 ft 320 kts 172°
2026-05-06 19:25 48.78867 16.61854 11749 ft 320 kts 172°
2026-05-06 19:25 48.76714 16.62549 11754 ft 321 kts 171°
2026-05-06 19:25 48.74534 16.63266 11745 ft 321 kts 171°
2026-05-06 19:25 48.72357 16.63983 11748 ft 320 kts 171°
2026-05-06 19:26 48.70181 16.64700 11748 ft 320 kts 171°
2026-05-06 19:26 48.68009 16.65415 11748 ft 319 kts 171°
2026-05-06 19:26 48.65835 16.66130 11748 ft 320 kts 171°
2026-05-06 19:26 48.63663 16.66843 11746 ft 319 kts 171°
2026-05-06 19:27 48.61492 16.67555 11747 ft 319 kts 171°
2026-05-06 19:27 48.59318 16.68233 11729 ft 319 kts 173°
2026-05-06 19:27 48.57137 16.68827 11705 ft 318 kts 173°
2026-05-06 19:27 48.54973 16.69433 11705 ft 315 kts 173°
2026-05-06 19:28 48.52822 16.70035 11703 ft 313 kts 172°
2026-05-06 19:28 48.50777 16.70918 11680 ft 297 kts 167°
2026-05-06 19:28 48.48870 16.71859 11660 ft 280 kts 166°
2026-05-06 19:28 48.47085 16.72780 11636 ft 263 kts 166°
2026-05-06 19:29 48.45392 16.73652 11460 ft 253 kts 166°
2026-05-06 19:29 48.43741 16.74499 11115 ft 249 kts 166°
2026-05-06 19:29 48.42123 16.75449 10716 ft 248 kts 168°
2026-05-06 19:29 48.40460 16.76036 10316 ft 245 kts 173°
2026-05-06 19:30 48.38794 16.76542 9921 ft 243 kts 174°
2026-05-06 19:30 48.37119 16.77039 9163 ft 250 kts 174°
2026-05-06 19:30 48.35389 16.77555 8632 ft 253 kts 173°
2026-05-06 19:30 48.33683 16.78053 8306 ft 247 kts 175°
2026-05-06 19:31 48.32009 16.78579 7926 ft 246 kts 167°
2026-05-06 19:31 48.30440 16.79626 7547 ft 248 kts 158°
2026-05-06 19:31 48.27506 16.82184 6955 ft 241 kts 156°
2026-05-06 19:32 48.26105 16.83471 6958 ft 240 kts 156°
2026-05-06 19:32 48.24685 16.84781 6983 ft 240 kts 156°
2026-05-06 19:32 48.23250 16.86106 6989 ft 240 kts 156°
2026-05-06 19:32 48.21849 16.87398 6990 ft 240 kts 156°
2026-05-06 19:33 48.20412 16.88724 7003 ft 240 kts 156°
2026-05-06 19:33 48.18997 16.90029 7004 ft 240 kts 156°
2026-05-06 19:33 48.17630 16.91290 7008 ft 239 kts 156°
2026-05-06 19:33 48.16183 16.92625 7010 ft 239 kts 156°
2026-05-06 19:34 48.14760 16.93916 7010 ft 238 kts 160°
2026-05-06 19:34 48.13250 16.94455 7006 ft 221 kts 191°
2026-05-06 19:34 48.11853 16.93638 7014 ft 215 kts 223°
2026-05-06 19:34 48.11033 16.91790 7013 ft 219 kts 249°
2026-05-06 19:35 48.10632 16.89563 7010 ft 225 kts 255°
2026-05-06 19:35 48.10324 16.87265 6991 ft 227 kts 256°
2026-05-06 19:35 48.10028 16.84953 6995 ft 227 kts 256°
2026-05-06 19:35 48.09735 16.82633 6996 ft 227 kts 256°
2026-05-06 19:36 48.09438 16.80321 6994 ft 228 kts 256°
2026-05-06 19:36 48.09359 16.77950 6987 ft 234 kts 279°
2026-05-06 19:36 48.10125 16.75786 6989 ft 246 kts 310°
2026-05-06 19:36 48.11524 16.74398 7005 ft 257 kts 331°
2026-05-06 19:37 48.13233 16.73378 7017 ft 262 kts 335°
2026-05-06 19:37 48.14951 16.72458 6992 ft 264 kts 335°
2026-05-06 19:37 48.16676 16.71546 6992 ft 264 kts 336°
2026-05-06 19:37 48.17846 16.70929 6992 ft 263 kts 336°
2026-05-06 19:38 48.20123 16.69728 6993 ft 262 kts 336°
2026-05-06 19:38 48.21842 16.68824 6896 ft 261 kts 336°
2026-05-06 19:38 48.23560 16.67924 6420 ft 261 kts 336°
2026-05-06 19:38 48.24718 16.67320 6169 ft 259 kts 335°
2026-05-06 19:39 48.26419 16.66438 6005 ft 259 kts 335°
2026-05-06 19:39 48.28120 16.65561 5988 ft 260 kts 336°
2026-05-06 19:39 48.29818 16.64690 5990 ft 260 kts 336°
2026-05-06 19:39 48.31496 16.63832 5975 ft 249 kts 336°
2026-05-06 19:40 48.33070 16.63018 5981 ft 242 kts 336°
2026-05-06 19:40 48.34667 16.62185 5977 ft 241 kts 336°
2026-05-06 19:40 48.36227 16.61380 5979 ft 238 kts 338°
2026-05-06 19:40 48.37879 16.61214 5983 ft 243 kts
2026-05-06 19:41 48.39506 16.61944 5983 ft 247 kts 19°
2026-05-06 19:41 48.41106 16.62876 5977 ft 248 kts 20°
2026-05-06 19:41 48.42724 16.63838 5984 ft 250 kts 20°
2026-05-06 19:41 48.44333 16.64798 5979 ft 250 kts 21°
2026-05-06 19:42 48.45948 16.65758 5972 ft 249 kts 20°
2026-05-06 19:42 48.47573 16.66649 5964 ft 249 kts
2026-05-06 19:42 48.49269 16.66731 5979 ft 243 kts 350°
2026-05-06 19:42 48.50934 16.66379 5969 ft 241 kts 346°
2026-05-06 19:43 48.52593 16.65958 5615 ft 244 kts 346°
2026-05-06 19:43 48.54245 16.65507 5321 ft 237 kts 345°
2026-05-06 19:43 48.55841 16.65060 5047 ft 231 kts 346°
2026-05-06 19:43 48.57414 16.64610 4979 ft 230 kts 346°
2026-05-06 19:44 48.58874 16.63753 4965 ft 223 kts 319°
2026-05-06 19:44 48.59877 16.62041 4972 ft 216 kts 299°
2026-05-06 19:44 48.60662 16.60115 4973 ft 214 kts 296°
2026-05-06 19:44 48.61415 16.58179 4970 ft 213 kts 295°
2026-05-06 19:45 48.61871 16.56122 4968 ft 204 kts 267°
2026-05-06 19:45 48.61504 16.54116 4966 ft 201 kts 234°
2026-05-06 19:45 48.60444 16.52772 4978 ft 200 kts 208°
2026-05-06 19:45 48.59162 16.52003 4968 ft 201 kts 202°
2026-05-06 19:46 48.57803 16.51462 4971 ft 204 kts 193°
2026-05-06 19:46 48.56400 16.51171 4968 ft 203 kts 191°
2026-05-06 19:46 48.54990 16.50918 4970 ft 204 kts 192°
2026-05-06 19:46 48.53612 16.50742 4949 ft 197 kts 193°
2026-05-06 19:47 48.52388 16.50099 4962 ft 181 kts 209°
2026-05-06 19:47 48.51219 16.49381 4969 ft 184 kts 199°
2026-05-06 19:47 48.49948 16.49058 4972 ft 187 kts 191°
2026-05-06 19:47 48.48652 16.48856 4974 ft 188 kts 191°
2026-05-06 19:48 48.47354 16.48676 4969 ft 188 kts 191°
2026-05-06 19:48 48.46056 16.48496 4970 ft 189 kts 190°
2026-05-06 19:48 48.44746 16.48303 4973 ft 189 kts 190°
2026-05-06 19:48 48.43438 16.48107 4983 ft 188 kts 191°
2026-05-06 19:49 48.42152 16.47938 4989 ft 186 kts 191°
2026-05-06 19:49 48.40860 16.47768 4980 ft 187 kts 190°
2026-05-06 19:49 48.39565 16.47593 4977 ft 186 kts 191°
2026-05-06 19:49 48.38277 16.47410 4978 ft 187 kts 191°
2026-05-06 19:50 48.36977 16.47377 4982 ft 190 kts 180°
2026-05-06 19:50 48.35707 16.47718 4983 ft 192 kts 172°
2026-05-06 19:50 48.34405 16.48249 4982 ft 193 kts 170°
2026-05-06 19:50 48.33144 16.48787 4932 ft 193 kts 170°
2026-05-06 19:51 48.31828 16.49375 4730 ft 193 kts 171°
2026-05-06 19:51 48.30548 16.49922 4453 ft 191 kts 171°
2026-05-06 19:51 48.29272 16.50460 4157 ft 189 kts 171°
2026-05-06 19:51 48.28014 16.50997 3867 ft 185 kts 172°
2026-05-06 19:52 48.26812 16.51510 3608 ft 174 kts 172°
2026-05-06 19:52 48.25686 16.51990 3394 ft 169 kts 172°
2026-05-06 19:52 48.24563 16.52466 3179 ft 167 kts 172°
2026-05-06 19:52 48.23456 16.52937 2969 ft 165 kts 172°
2026-05-06 19:53 48.22357 16.53404 2754 ft 163 kts 172°
2026-05-06 19:53 48.21268 16.53867 2526 ft 162 kts 172°
2026-05-06 19:53 48.20235 16.54310 2334 ft 146 kts 172°
2026-05-06 19:53 48.19278 16.54715 2142 ft 143 kts 172°
2026-05-06 19:54 48.18295 16.55128 1955 ft 149 kts 171°
2026-05-06 19:54 48.17320 16.55547 1766 ft 139 kts 171°
2026-05-06 19:54 48.16417 16.55932 1580 ft 132 kts 170°
2026-05-06 19:54 48.15572 16.56290 1406 ft 123 kts 169°
2026-05-06 19:55 48.14749 16.56638 1258 ft 123 kts 168°
2026-05-06 19:55 48.13930 16.56988 1096 ft 121 kts 166°
2026-05-06 19:55 48.13135 16.57321 911 ft 118 kts 163°
2026-05-06 19:55 48.12340 16.57668 730 ft 121 kts 164°
2026-05-06 19:56 48.11539 16.58008 629 ft 112 kts 165°
2026-05-06 19:56 48.10891 16.58279 622 ft 75 kts 165°
2026-05-06 19:56 48.10493 16.58445 623 ft 53 kts 164°
2026-05-06 19:56 48.10174 16.58583 622 ft 38 kts 164°
2026-05-06 19:57 48.09942 16.58613 626 ft 30 kts 182°
2026-05-06 19:57 48.09766 16.58577 628 ft 23 kts 188°
2026-05-06 19:57 48.09665 16.58536 627 ft 10 kts 228°
2026-05-06 19:57 48.09637 16.58450 628 ft 9 kts 263°
2026-05-06 19:58 48.09659 16.58384 633 ft 7 kts 333°
2026-05-06 19:58 48.09709 16.58361 631 ft 8 kts 345°
2026-05-06 19:58 48.09774 16.58333 626 ft 11 kts 344°
2026-05-06 19:58 48.09853 16.58298 630 ft 13 kts 343°
2026-05-06 19:59 48.09945 16.58260 625 ft 13 kts 345°
2026-05-06 19:59 48.10000 16.58237 625 ft 6 kts 344°
2026-05-06 19:59 48.10041 16.58219 628 ft 7 kts 343°
2026-05-06 19:59 48.10086 16.58199 630 ft 7 kts 344°
2026-05-06 20:00 48.10130 16.58181 619 ft 6 kts 344°
2026-05-06 20:00 48.10174 16.58163 624 ft 7 kts 344°
2026-05-06 20:00 48.10190 16.58156 626 ft 0 kts 345°
2026-05-06 20:02 48.10196 16.58154 630 ft 1 kts 345°
2026-05-06 20:02 48.10202 16.58151 629 ft 1 kts 345°
2026-05-06 20:03 48.10216 16.58145 627 ft 3 kts 345°
2026-05-06 20:03 48.10241 16.58135 627 ft 5 kts 344°
2026-05-06 20:03 48.10277 16.58120 620 ft 6 kts 343°
2026-05-06 20:03 48.10288 16.58115 628 ft 0 kts 344°
2026-05-06 20:09 48.10290 16.58114 628 ft 1 kts 344°
2026-05-06 20:09 48.10296 16.58111 624 ft 2 kts 343°
2026-05-06 20:09 48.10321 16.58100 623 ft 5 kts 343°
2026-05-06 20:09 48.10365 16.58081 630 ft 8 kts 343°
2026-05-06 20:10 48.10426 16.58055 630 ft 10 kts 345°
2026-05-06 20:10 48.10497 16.58026 628 ft 11 kts 345°
2026-05-06 20:10 48.10571 16.57996 629 ft 11 kts 344°
2026-05-06 20:10 48.10639 16.57966 625 ft 10 kts 343°
2026-05-06 20:11 48.10702 16.57938 631 ft 10 kts 343°
2026-05-06 20:11 48.10787 16.57903 627 ft 15 kts 345°
2026-05-06 20:11 48.10894 16.57859 627 ft 16 kts 344°
2026-05-06 20:11 48.11000 16.57813 629 ft 16 kts 342°
2026-05-06 20:12 48.11072 16.57698 629 ft 15 kts 296°
2026-05-06 20:12 48.11116 16.57564 628 ft 15 kts 296°
2026-05-06 20:12 48.11165 16.57412 626 ft 17 kts 295°
2026-05-06 20:12 48.11214 16.57262 629 ft 15 kts 296°
2026-05-06 20:13 48.11264 16.57111 629 ft 17 kts 296°
2026-05-06 20:13 48.11318 16.56942 628 ft 19 kts 296°
2026-05-06 20:13 48.11383 16.56746 629 ft 23 kts 296°
2026-05-06 20:13 48.11453 16.56530 620 ft 24 kts 294°
2026-05-06 20:14 48.11521 16.56310 629 ft 22 kts 295°
2026-05-06 20:14 48.11587 16.56108 629 ft 21 kts 297°
2026-05-06 20:14 48.11651 16.55919 631 ft 20 kts 295°
2026-05-06 20:14 48.11716 16.55723 620 ft 22 kts 296°
2026-05-06 20:15 48.11802 16.55580 624 ft 15 kts
2026-05-06 20:15 48.11873 16.55636 623 ft 10 kts 72°
2026-05-06 20:15 48.11892 16.55686 617 ft 6 kts 46°
2026-05-06 20:15 48.11905 16.55702 619 ft 0 kts 25°